FW7539 Weather Reports


Display with metric or nautical units.
time (UTC)temp
F
wind
direction
speed
MPH
gust
MPH
rain 1hr
in
rain 24hr
in
rain mn
in
humidity
%
barometer
mb
20260507101500 40 5 0.0 1.0 0.00 0.00 0.00 89 1016.4
20260507101001 40 5 0.0 1.0 0.00 0.00 0.00 89 1016.3
20260507100501 40 5 0.0 1.0 0.00 0.00 0.00 89 1016.3
20260507100001 40 5 0.0 1.0 0.00 0.00 0.00 89 1016.3
20260507095500 40 5 0.0 1.0 0.00 0.00 0.00 90 1016.3
20260507095001 40 0 0.0 0.0 0.00 0.00 0.00 90 1016.3
20260507094501 40 0 0.0 0.0 0.00 0.00 0.00 89 1016.4
20260507094001 40 0 0.0 0.0 0.00 0.00 0.00 89 1016.4
20260507093501 40 5 0.0 1.0 0.00 0.00 0.00 89 1016.4
20260507093001 41 5 0.0 1.0 0.00 0.00 0.00 89 1016.4
20260507092502 41 5 0.0 1.0 0.00 0.00 0.00 89 1016.3
20260507092000 41 5 0.0 1.0 0.00 0.00 0.00 89 1016.2
20260507091501 41 5 0.0 1.0 0.00 0.00 0.00 89 1016.1
20260507091022 41 5 0.0 1.0 0.00 0.00 0.00 89 1016.1
20260507090501 41 5 0.0 1.0 0.00 0.00 0.00 89 1016.1
20260507090001 41 5 0.0 1.0 0.00 0.00 0.00 89 1016.0
20260507085501 41 5 0.0 1.0 0.00 0.00 0.00 89 1016.0
20260507085001 41 5 0.0 1.0 0.00 0.00 0.00 90 1016.0
20260507084501 41 5 0.0 1.0 0.00 0.00 0.00 90 1015.9
20260507084001 41 5 0.0 1.0 0.00 0.00 0.00 90 1015.9
20260507083501 41 5 0.0 1.0 0.00 0.00 0.00 90 1015.9
20260507083001 41 5 0.0 1.0 0.00 0.00 0.00 90 1015.8
20260507082522 42 5 0.0 1.0 0.00 0.00 0.00 90 1015.8
20260507082021 42 5 0.0 1.0 0.00 0.00 0.00 90 1015.8
20260507081500 42 5 0.0 1.0 0.00 0.00 0.00 90 1015.8
20260507081001 42 5 0.0 1.0 0.00 0.00 0.00 90 1015.8
20260507080501 42 5 0.0 1.0 0.00 0.00 0.00 89 1015.8
20260507080022 42 5 0.0 1.0 0.00 0.00 0.00 89 1015.7
20260507075501 42 5 0.0 1.0 0.00 0.01 0.00 89 1015.8
20260507075001 42 5 0.0 1.0 0.00 0.01 0.00 90 1015.7
20260507074501 42 5 0.0 1.0 0.00 0.01 0.00 90 1015.7
20260507074000 42 5 0.0 1.0 0.00 0.01 0.00 90 1015.7
20260507073501 42 5 0.0 1.0 0.00 0.01 0.00 90 1015.7
20260507073001 42 5 0.0 1.0 0.00 0.02 0.00 90 1015.7
20260507072501 42 5 0.0 1.0 0.00 0.03 0.00 90 1015.8
20260507072001 43 5 0.0 1.0 0.00 0.04 0.00 90 1015.7
20260507071501 43 5 0.0 1.0 0.00 0.05 0.00 89 1015.6
20260507071001 43 5 0.0 1.0 0.00 0.05 0.00 89 1015.6
20260507070501 43 5 0.0 1.0 0.00 0.05 0.00 89 1015.6
20260507070001 43 5 0.0 1.0 0.00 0.06 0.00 89 1015.8
20260507065522 43 5 0.0 1.0 0.00 0.07 0.00 89 1015.7
20260507065001 43 5 0.0 1.0 0.00 0.08 0.00 89 1015.7
20260507064501 43 5 0.0 1.0 0.00 0.09 0.00 89 1015.7
20260507064022 43 5 0.0 1.0 0.00 0.10 0.00 89 1015.8
20260507063501 43 5 0.0 1.0 0.00 0.10 0.00 89 1015.8
20260507063022 43 5 0.0 1.0 0.00 0.11 0.00 89 1015.9
20260507062501 43 0 0.0 0.0 0.00 0.11 0.00 89 1015.9
20260507062001 43 0 0.0 0.0 0.00 0.11 0.00 89 1015.9
20260507061502 43 0 0.0 0.0 0.00 0.11 0.00 89 1015.9
20260507061001 43 0 0.0 0.0 0.00 0.12 0.00 89 1015.8
20260507060501 43 0 0.0 0.0 0.00 0.12 0.00 89 1015.8
20260507060001 44 0 0.0 0.0 0.00 0.13 0.00 89 1015.8
20260507055501 44 0 0.0 0.0 0.00 0.14 0.00 89 1015.9
20260507055022 44 0 0.0 0.0 0.00 0.15 0.00 89 1015.9
20260507054523 44 0 0.0 0.0 0.00 0.16 0.00 89 1015.9
20260507054001 44 0 0.0 0.0 0.00 0.17 0.00 89 1015.9
20260507053522 44 0 0.0 0.0 0.00 0.19 0.00 89 1016.0
20260507053001 44 0 0.0 0.0 0.00 0.20 0.00 89 1016.0
20260507052501 44 0 0.0 0.0 0.00 0.22 0.00 89 1016.0
20260507052001 44 0 0.0 0.0 0.00 0.24 0.00 89 1015.9
20260507051522 44 0 0.0 0.0 0.00 0.25 0.00 89 1015.8
20260507051001 44 0 0.0 0.0 0.00 0.25 0.00 89 1015.8
20260507050501 44 0 0.0 0.0 0.00 0.26 0.00 88 1015.8
20260507050001 44 0 0.0 0.0 0.00 0.29 0.00 88 1016.0
20260507045501 44 0 0.0 0.0 0.00 0.31 0.00 88 1016.0
20260507045001 44 0 0.0 0.0 0.00 0.32 0.00 89 1016.0
20260507044501 44 0 0.0 0.0 0.00 0.33 0.00 89 1016.0
20260507044001 44 0 0.0 0.0 0.00 0.34 0.00 88 1016.1
20260507043522 44 0 0.0 0.0 0.00 0.35 0.00 88 1016.1
20260507043001 44 0 0.0 0.0 0.00 0.35 0.00 88 1016.0
20260507042501 45 0 0.0 0.0 0.00 0.36 0.00 88 1015.9
20260507042001 45 0 0.0 0.0 0.00 0.37 0.00 88 1015.9
20260507041522 45 0 0.0 0.0 0.00 0.38 0.00 88 1016.0
20260507041001 45 0 0.0 0.0 0.00 0.40 0.00 88 1016.0
20260507040501 45 0 0.0 0.0 0.00 0.43 0.00 87 1015.9
20260507040001 45 0 0.0 0.0 0.00 0.45 0.00 87 1015.8
20260507035501 45 0 0.0 0.0 0.00 0.45 0.45 87 1015.9
20260507035022 45 0 0.0 0.0 0.00 0.45 0.45 86 1015.8
20260507034501 45 0 0.0 0.0 0.00 0.45 0.45 86 1015.8
20260507034022 45 0 0.0 0.0 0.00 0.47 0.45 86 1015.9
20260507033501 46 0 0.0 0.0 0.00 0.48 0.45 86 1015.9
20260507033001 46 0 0.0 0.0 0.00 0.49 0.45 86 1015.9
20260507032501 46 0 0.0 0.0 0.00 0.49 0.45 86 1015.8
20260507032001 46 0 0.0 0.0 0.00 0.49 0.45 86 1015.8
20260507031501 46 0 0.0 0.0 0.00 0.49 0.45 85 1015.9
20260507031001 46 0 0.0 0.0 0.00 0.49 0.45 85 1016.0
20260507030501 46 0 0.0 0.0 0.00 0.49 0.45 85 1015.9
20260507030001 46 0 0.0 0.0 0.00 0.49 0.45 85 1016.0
20260507025501 46 0 0.0 0.0 0.00 0.49 0.45 85 1016.0
20260507025001 46 0 0.0 0.0 0.00 0.49 0.45 85 1015.9
20260507024501 47 0 0.0 0.0 0.00 0.49 0.45 84 1016.0
20260507024001 47 0 0.0 0.0 0.00 0.49 0.45 84 1015.9
20260507023501 47 0 0.0 0.0 0.00 0.50 0.45 84 1015.8
20260507023002 47 0 0.0 0.0 0.00 0.51 0.45 83 1015.8
20260507022501 47 0 0.0 0.0 0.00 0.51 0.45 82 1015.8
20260507022001 48 0 0.0 0.0 0.00 0.51 0.45 81 1015.7
20260507021501 48 0 0.0 0.0 0.00 0.51 0.45 81 1015.8
20260507021001 48 0 0.0 0.0 0.00 0.51 0.45 80 1015.7
20260507020501 48 0 0.0 0.0 0.00 0.51 0.45 80 1015.7
20260507020001 48 0 0.0 0.0 0.00 0.51 0.45 80 1015.6
20260507015501 49 0 0.0 0.0 0.00 0.52 0.45 79 1015.5
20260507015001 49 0 0.0 0.0 0.00 0.53 0.45 79 1015.5
20260507014501 49 0 0.0 0.0 0.00 0.55 0.45 77 1015.5
20260507014023 49 0 0.0 0.0 0.00 0.55 0.45 76 1015.5
20260507013501 50 0 0.0 0.0 0.00 0.56 0.45 78 1015.3
20260507013001 50 0 0.0 0.0 0.00 0.56 0.45 76 1015.3
20260507012501 50 0 0.0 0.0 0.00 0.57 0.45 76 1015.2
20260507012001 50 0 0.0 0.0 0.00 0.57 0.45 77 1015.2
20260507011523 51 0 0.0 0.0 0.00 0.57 0.45 77 1015.0
20260507011001 51 0 0.0 0.0 0.00 0.57 0.45 75 1015.0
20260507010501 52 0 0.0 0.0 0.00 0.58 0.45 72 1015.0
20260507010002 52 0 0.0 0.0 0.00 0.59 0.45 72 1015.1
20260507005502 52 0 0.0 0.0 0.00 0.61 0.45 71 1015.2
20260507005022 53 0 0.0 0.0 0.00 0.62 0.45 72 1015.0
20260507004501 53 0 0.0 0.0 0.00 0.64 0.45 70 1015.1
20260507004022 54 0 0.0 0.0 0.00 0.66 0.45 69 1015.1
20260507003502 54 5 0.0 1.0 0.00 0.67 0.45 66 1015.1
20260507003023 54 5 0.0 1.0 0.00 0.67 0.45 65 1015.0
20260507002502 55 5 0.0 1.0 0.00 0.67 0.45 66 1014.9
20260507002001 55 5 0.0 1.0 0.00 0.67 0.45 65 1014.8
20260507001501 56 2 0.0 3.0 0.00 0.67 0.45 60 1014.8
20260507001022 56 354 1.0 3.0 0.00 0.67 0.45 61 1014.8
20260507000501 56 1 1.0 3.0 0.00 0.67 0.45 58 1014.6
20260507000002 56 6 1.0 4.0 0.00 0.68 0.45 59 1014.7
20260506235501 57 346 1.0 4.0 0.00 0.68 0.45 58 1014.6
20260506235001 57 295 1.0 4.0 0.00 0.69 0.45 58 1014.5
20260506234501 57 307 2.0 5.0 0.00 0.69 0.45 58 1014.4
20260506234001 57 338 2.0 9.0 0.00 0.69 0.45 58 1014.4
20260506233501 58 321 2.0 9.0 0.00 0.69 0.45 56 1014.5
20260506233001 58 288 2.0 6.0 0.00 0.69 0.45 55 1014.5
20260506232501 58 287 1.0 6.0 0.00 0.69 0.45 55 1014.4
20260506232022 58 301 2.0 6.0 0.00 0.69 0.45 54 1014.4
20260506231501 58 352 3.0 8.0 0.00 0.70 0.45 54 1014.2
20260506231002 59 4 3.0 8.0 0.00 0.70 0.45 53 1014.1
20260506230523 59 354 2.0 6.0 0.00 0.71 0.45 53 1014.1
20260506230022 60 326 3.0 7.0 0.00 0.71 0.45 52 1014.2
20260506225501 59 346 3.0 9.0 0.00 0.71 0.45 53 1014.2
20260506225001 59 4 3.0 9.0 0.00 0.71 0.45 54 1014.3
20260506224501 59 10 3.0 9.0 0.00 0.71 0.45 55 1014.4
20260506224002 59 350 2.0 5.0 0.00 0.71 0.45 55 1014.3
20260506223502 58 278 2.0 5.0 0.00 0.71 0.45 55 1014.2
20260506223002 58 309 2.0 5.0 0.00 0.71 0.45 55 1014.4
20260506222501 58 345 2.0 5.0 0.00 0.71 0.45 55 1014.5
20260506222001 58 313 1.0 5.0 0.00 0.71 0.45 55 1014.5
20260506221501 58 291 1.0 4.0 0.00 0.71 0.45 55 1014.5
20260506221001 58 312 1.0 3.0 0.00 0.71 0.45 54 1014.6
20260506220501 58 295 1.0 3.0 0.00 0.71 0.45 54 1014.6
20260506220002 58 264 1.0 4.0 0.00 0.71 0.45 53 1014.7
20260506215501 58 299 1.0 4.0 0.00 0.71 0.45 53 1014.7
20260506215001 58 355 1.0 4.0 0.00 0.71 0.45 54 1014.7
20260506214523 58 6 2.0 5.0 0.00 0.71 0.45 54 1014.8
20260506214002 58 7 2.0 5.0 0.00 0.71 0.45 54 1014.7
20260506213501 58 4 2.0 5.0 0.00 0.71 0.45 53 1014.6
20260506213001 58 350 2.0 6.0 0.00 0.71 0.45 55 1014.5
20260506212502 58 354 3.0 8.0 0.00 0.71 0.45 54 1014.5
20260506212001 58 342 2.0 8.0 0.00 0.71 0.45 55 1014.4
20260506211501 58 277 1.0 5.0 0.00 0.71 0.45 54 1014.5
20260506211001 59 292 1.0 4.0 0.00 0.71 0.45 52 1014.4
20260506210502 59 346 2.0 5.0 0.00 0.72 0.45 52 1014.2
20260506210001 59 348 2.0 5.0 0.00 0.72 0.45 52 1014.1
20260506205501 59 344 2.0 6.0 0.00 0.73 0.45 51 1014.1
20260506205002 59 350 2.0 6.0 0.00 0.73 0.45 52 1014.1
20260506204502 59 354 2.0 8.0 0.00 0.73 0.45 50 1014.1
20260506204001 59 350 2.0 8.0 0.00 0.73 0.45 51 1014.2
20260506203501 59 320 2.0 8.0 0.00 0.73 0.45 54 1014.3
20260506203001 58 259 2.0 6.0 0.00 0.74 0.45 52 1014.2
20260506202502 58 269 2.0 8.0 0.00 0.74 0.45 53 1014.3
20260506202002 58 288 2.0 8.0 0.00 0.75 0.45 52 1014.3
20260506201501 58 297 2.0 6.0 0.00 0.75 0.45 53 1014.5
20260506201002 59 325 2.0 7.0 0.00 0.76 0.45 54 1014.3
20260506200502 58 309 2.0 7.0 0.00 0.76 0.45 54 1014.2
20260506200023 58 287 2.0 7.0 0.00 0.77 0.45 52 1014.4
20260506195501 59 331 2.0 5.0 0.00 0.77 0.45 52 1014.4
20260506195022 59 5 2.0 8.0 0.00 0.77 0.45 55 1014.2
20260506194502 59 357 3.0 8.0 0.00 0.78 0.45 50 1014.3
20260506194001 59 350 2.0 6.0 0.00 0.79 0.45 51 1014.3
20260506193522 59 348 2.0 6.0 0.00 0.79 0.45 54 1014.1
20260506193001 59 356 3.0 9.0 0.00 0.81 0.45 53 1014.1
20260506192501 59 356 3.0 9.0 0.00 0.82 0.45 48 1014.0
20260506192001 60 357 3.0 8.0 0.00 0.83 0.45 50 1013.8
20260506191501 60 8 3.0 12.0 0.00 0.85 0.45 52 1013.8
20260506191002 60 13 4.0 12.0 0.00 0.87 0.45 51 1013.7
20260506190501 60 15 3.0 12.0 0.00 0.90 0.45 53 1013.8
20260506190001 61 6 2.0 6.0 0.00 0.91 0.45 50 1013.9
20260506185502 61 360 3.0 9.0 0.00 0.91 0.45 50 1013.8
20260506185001 60 356 3.0 9.0 0.00 0.91 0.45 50 1013.7
20260506184501 61 359 4.0 12.0 0.00 0.91 0.45 50 1013.9
20260506184023 61 3 3.0 12.0 0.00 0.91 0.45 49 1013.7
20260506183501 62 356 3.0 10.0 0.00 0.91 0.45 48 1013.8
20260506183001 61 351 3.0 10.0 0.00 0.91 0.45 49 1013.6
20260506182502 61 3 3.0 11.0 0.00 0.91 0.45 50 1013.7
20260506182002 61 351 2.0 11.0 0.00 0.91 0.45 51 1013.7
20260506181501 61 309 2.0 4.0 0.00 0.91 0.45 49 1013.6
20260506181001 61 344 3.0 6.0 0.00 0.91 0.45 53 1013.7
20260506180502 61 359 4.0 11.0 0.00 0.91 0.45 54 1013.7
20260506180001 60 360 3.0 11.0 0.00 0.91 0.45 55 1013.9
20260506175501 61 334 2.0 9.0 0.00 0.91 0.45 51 1014.0
20260506175002 61 346 2.0 8.0 0.00 0.91 0.45 54 1014.0
20260506174501 61 26 3.0 7.0 0.00 0.91 0.45 53 1014.0
20260506174002 60 25 2.0 8.0 0.00 0.91 0.45 55 1014.0
20260506173502 60 360 2.0 10.0 0.00 0.91 0.45 55 1014.1
20260506173002 59 322 2.0 10.0 0.00 0.91 0.45 56 1014.2
20260506172501 59 318 2.0 5.0 0.00 0.91 0.45 57 1014.2
20260506172001 59 10 3.0 10.0 0.00 0.91 0.45 53 1014.1
20260506171502 59 18 3.0 10.0 0.00 0.91 0.45 54 1014.2
20260506171002 59 354 2.0 4.0 0.00 0.91 0.45 59 1014.2
20260506170502 58 302 2.0 6.0 0.00 0.91 0.45 59 1014.3
20260506170022 58 348 3.0 6.0 0.00 0.91 0.45 57 1014.4
20260506165501 58 7 3.0 6.0 0.00 0.91 0.45 57 1014.4
20260506165023 58 350 2.0 6.0 0.00 0.91 0.45 57 1014.3
20260506164523 58 347 2.0 8.0 0.00 0.91 0.45 58 1014.5
20260506164001 58 360 2.0 8.0 0.00 0.91 0.45 55 1014.5
20260506163501 58 1 2.0 6.0 0.00 0.91 0.45 59 1014.3
20260506163002 58 5 3.0 9.0 0.00 0.91 0.45 57 1014.3
20260506162502 58 3 3.0 9.0 0.00 0.91 0.45 60 1014.3
20260506162002 57 340 3.0 9.0 0.00 0.91 0.45 60 1014.3
20260506161501 57 5 3.0 9.0 0.00 0.91 0.45 59 1014.5
20260506161002 57 12 3.0 9.0 0.00 0.91 0.45 58 1014.5
20260506160522 57 358 2.0 9.0 0.00 0.91 0.45 61 1014.4
20260506160001 57 1 2.0 7.0 0.00 0.91 0.45 63 1014.4
20260506155502 56 356 3.0 7.0 0.00 0.91 0.45 62 1014.2
20260506155002 56 345 3.0 7.0 0.00 0.91 0.45 63 1014.1
20260506154502 55 334 2.0 7.0 0.00 0.91 0.45 64 1014.0
20260506154001 55 357 2.0 7.0 0.00 0.91 0.45 63 1014.1
20260506153501 54 6 3.0 8.0 0.00 0.91 0.45 65 1013.9
20260506153002 54 2 3.0 9.0 0.00 0.91 0.45 65 1014.0
20260506152502 54 347 2.0 9.0 0.00 0.91 0.45 65 1014.1
20260506152001 54 343 2.0 5.0 0.00 0.91 0.45 65 1014.4
20260506151501 54 345 2.0 5.0 0.00 0.91 0.45 66 1014.6
20260506151002 54 352 2.0 6.0 0.00 0.91 0.45 66 1014.5
20260506150502 53 7 2.0 7.0 0.00 0.91 0.45 68 1014.1
20260506150001 53 14 3.0 8.0 0.00 0.91 0.45 69 1013.7
20260506145501 52 6 2.0 8.0 0.00 0.91 0.45 70 1013.7
20260506145002 52 344 2.0 5.0 0.00 0.91 0.45 68 1013.7
20260506144502 52 356 2.0 8.0 0.00 0.91 0.45 71 1013.6
20260506144002 52 7 2.0 9.0 0.00 0.91 0.45 72 1013.4
20260506143522 51 8 3.0 9.0 0.00 0.91 0.45 74 1013.2
20260506143001 51 7 3.0 7.0 0.00 0.91 0.45 72 1013.0
20260506142502 51 4 3.0 6.0 0.00 0.91 0.45 74 1013.1
20260506142002 50 355 2.0 7.0 0.00 0.91 0.45 76 1013.0
20260506141502 50 347 2.0 7.0 0.00 0.91 0.45 75 1013.0
20260506141002 50 347 2.0 6.0 0.00 0.91 0.45 77 1013.1
20260506140501 50 356 2.0 7.0 0.00 0.91 0.45 77 1013.2
20260506140002 50 358 2.0 7.0 0.00 0.91 0.45 78 1013.2
20260506135501 50 354 2.0 5.0 0.00 0.91 0.45 80 1013.0
20260506135002 50 348 2.0 5.0 0.00 0.91 0.45 79 1013.0
20260506134502 50 351 3.0 8.0 0.00 0.91 0.45 79 1013.0
20260506134023 49 351 2.0 8.0 0.00 0.91 0.45 81 1012.9
20260506133502 49 350 2.0 9.0 0.00 0.91 0.45 82 1013.0
20260506133001 48 345 2.0 9.0 0.00 0.91 0.45 82 1012.8
20260506132522 48 324 2.0 5.0 0.00 0.91 0.45 82 1012.7
20260506132002 48 347 2.0 6.0 0.00 0.91 0.45 83 1012.9
20260506131502 48 358 2.0 6.0 0.00 0.91 0.45 83 1012.6
20260506131022 48 4 2.0 5.0 0.00 0.91 0.45 83 1012.5
20260506130502 47 1 2.0 5.0 0.00 0.91 0.45 84 1012.3
20260506130002 47 1 2.0 5.0 0.00 0.91 0.45 84 1012.4
20260506125502 47 354 1.0 5.0 0.00 0.91 0.45 85 1012.6
20260506125002 47 314 1.0 4.0 0.00 0.91 0.45 85 1012.8
20260506124501 47 305 1.0 4.0 0.00 0.91 0.45 85 1012.6
20260506124002 47 340 1.0 6.0 0.00 0.91 0.45 86 1012.4
20260506123502 46 344 2.0 6.0 0.00 0.91 0.45 86 1012.3
20260506123023 46 326 1.0 4.0 0.00 0.91 0.45 86 1012.3
20260506122501 46 340 2.0 7.0 0.00 0.91 0.45 86 1012.5
20260506122002 46 336 2.0 7.0 0.00 0.91 0.45 87 1012.4
20260506121502 46 315 1.0 5.0 0.00 0.91 0.45 86 1012.2
20260506121001 46 328 1.0 6.0 0.00 0.91 0.45 87 1012.2
20260506120501 46 344 1.0 6.0 0.00 0.91 0.45 87 1012.1
20260506120002 46 339 1.0 3.0 0.00 0.91 0.45 87 1011.9
20260506115502 46 347 1.0 4.0 0.00 0.91 0.45 87 1011.7
20260506115002 46 358 2.0 6.0 0.00 0.91 0.45 87 1011.6
20260506114502 45 358 2.0 6.0 0.00 0.91 0.45 87 1011.5
20260506114001 45 330 1.0 5.0 0.00 0.92 0.45 88 1011.1
20260506113502 45 318 1.0 4.0 0.00 0.92 0.45 88 1011.0
20260506113002 45 354 1.0 4.0 0.00 0.92 0.45 88 1011.1
20260506112502 45 339 1.0 3.0 0.00 0.92 0.45 89 1010.8
20260506112001 45 322 1.0 3.0 0.00 0.92 0.45 88 1011.0
20260506111523 45 351 1.0 6.0 0.00 0.92 0.45 88 1011.0
20260506111002 45 5 1.0 6.0 0.00 0.92 0.45 88 1010.5
20260506110502 45 12 1.0 4.0 0.00 0.92 0.45 89 1010.7
20260506110001 45 358 1.0 4.0 0.00 0.93 0.45 89 1010.6
20260506105502 44 310 1.0 4.0 0.00 0.93 0.45 89 1010.7
20260506105002 44 266 1.0 2.0 0.00 0.93 0.45 89 1010.8
20260506104502 44 316 1.0 3.0 0.00 0.93 0.45 89 1010.5
20260506104023 44 350 1.0 4.0 0.00 0.93 0.45 89 1009.9
20260506103502 44 278 1.0 4.0 0.00 0.93 0.45 89 1009.9
20260506103002 44 272 1.0 5.0 0.00 0.93 0.45 88 1010.0
20260506102502 44 308 1.0 5.0 0.00 0.93 0.45 88 1010.4
20260506102002 44 319 1.0 2.0 0.00 0.93 0.45 88 1010.5